Probability
4 4 3 3 3 2 1 0 0 0 0 0 0 0 0 0 0 0 0 0 0 0 0 0 0 0 0 0 0 0 0 0 0 0 0 0 0 0 0 0 0 0 0
4 3 3 3 4 3 1 0 0 0 0 0 0 0 0 0 0 0 0 0 0 0 0 0 0 0 0 0 0 0 0 0 0 0 0 0 0 0 0 0 0 0 0
3 2 2 3 4 4 2 0 0 0 0 0 0 0 0 0 0 0 0 0 0 0 0 0 0 0 0 0 0 0 0 0 0 0 0 0 0 0 0 0 0 0 0
2 1 1 1 2 4 3 2 0 0 0 0 0 0 0 0 0 0 0 0 0 0 0 0 0 0 0 0 0 0 0 0 0 0 0 0 0 0 0 0 0 0 0
1 0 0 0 1 2 4 3 1 0 0 0 0 0 0 0 0 0 0 0 0 0 0 0 0 0 0 0 0 0 0 0 0 0 0 0 0 0 0 0 0 0 0
0 0 0 0 0 2 3 2 0 0 0 0 0 0 0 0 0 0 0 0 0 0 0 0 0 0 0 0 0 0 0 0 0 0 0 0 0 0 0 0 0 0 0
0 0 0 0 0 1 1 1 0 0 0 0 0 0 0 0 0 0 0 0 0 0 0 0 0 0 0 0 0 0 0 0 0 0 0 0 0 0 0 0 0 0 0
0 0 0 0 0 0 0 0 0 0 0 0 0 0 0 0 0 0 0 0 0 0 0 0 0 0 0 0 0 0 0 0 0 0 0 0 0 0 0 0 0 0 0
0 0 0 0 0 0 0 0 0 0 0 0 0 0 0 0 0 0 0 0 0 0 0 0 0 0 0 0 0 0 0 0 0 0 0 0 0 0 0 0 0 0 0
0 0 0 0 0 0 0 0 0 0 0 0 0 0 0 0 0 0 0 0 0 0 0 0 0 0 0 0 0 0 0 0 0 0 0 0 0 0 0 0 0 0 0
0 0 0 0 0 0 0 0 0 0 0 0 0 0 0 0 0 0 0 0 0 0 0 0 0 0 0 0 0 0 0 0 0 0 0 0 0 0 0 0 0 0 0
0 0 0 0 0 0 0 0 0 0 0 0 0 0 0 0 0 0 0 0 0 0 0 0 0 0 0 0 0 0 0 0 0 0 0 0 0 0 0 0 0 0 0
0 0 0 0 0 0 0 0 0 0 0 0 0 0 0 0 0 0 0 0 0 0 0 0 0 0 0 0 0 0 0 0 0 0 0 0 0 0 0 0 0 0 0
0 0 0 0 0 0 0 0 0 0 0 0 0 0 0 0 0 0 0 0 0 0 0 0 0 0 0 0 0 0 0 0 0 0 0 0 0 0 0 0 0 0 0
0 0 0 0 0 0 0 0 0 0 0 0 0 0 0 0 0 0 0 0 0 0 0 0 0 0 0 0 0 0 0 0 0 0 0 0 0 0 0 0 0 0 0
0 0 0 0 0 0 0 0 0 0 0 0 0 0 0 0 0 0 0 0 0 0 0 0 0 0 0 0 0 0 0 0 0 0 0 0 0 0 0 0 0 0 0
0 0 0 0 0 0 0 0 0 0 0 0 0 0 0 0 0 0 0 0 0 0 0 0 0 0 0 0 0 0 0 0 0 0 0 0 0 0 0 0 0 0 0
0 0 0 0 0 0 0 0 0 0 0 0 0 0 0 0 0 0 0 0 0 0 0 0 0 0 0 0 0 0 0 0 0 0 0 0 0 0 0 0 0 0 0
0 0 0 0 0 0 0 0 0 0 0 0 0 0 0 0 0 0 0 0 0 0 0 0 0 0 0 0 0 0 0 0 0 0 0 0 0 0 0 0 0 0 0
0 0 0 0 0 0 0 0 0 0 0 0 0 0 0 0 0 0 0 0 0 0 0 0 0 0 0 0 0 0 0 0 0 0 0 0 0 0 0 0 0 0 0
0 0 0 0 0 0 0 0 0 0 0 0 0 0 0 0 0 0 0 0 0 0 0 0 0 0 0 0 0 0 0 0 0 0 0 0 0 0 0 0 0 0 0
0 0 0 0 0 0 0 0 0 0 0 0 0 0 0 0 0 0 0 0 0 0 0 0 0 0 0 0 0 0 0 0 0 0 0 0 0 0 0 0 0 0 0
0 0 0 0 0 0 0 0 0 0 0 0 0 0 0 0 0 0 0 0 0 0 0 0 0 0 0 0 0 0 0 0 0 0 0 0 0 0 0 0 0 0 0
0 0 0 0 0 0 0 0 0 0 0 0 0 0 0 0 0 0 0 0 0 0 0 0 0 0 0 0 0 0 0 0 0 0 0 0 0 0 0 0 0 0 0
0 0 0 0 0 0 0 0 0 0 0 0 0 0 0 0 0 0 0 0 0 0 0 0 0 0 0 0 0 0 0 0 0 0 0 0 0 0 0 0 0 0 0
0 0 0 0 0 0 0 0 0 0 0 0 0 0 0 0 0 0 0 0 0 0 0 0 0 0 0 0 0 0 0 0 0 0 0 0 0 0 0 0 0 0 0
Wind_Speed
3 2 2 2 2 3 3 4 4 3 3 4 4 4 4 4 4 4 4 4 4 4 3 4 4 3 3 2 2 3 3 3 3 3 2 2 2 3 3 2 3 3 3
2 2 2 2 2 2 3 3 3 3 4 4 4 4 5 4 4 5 5 5 5 5 5 4 4 3 4 3 3 3 3 3 3 3 2 2 3 3 3 3 2 2 3
2 2 2 2 2 2 2 2 2 3 3 3 4 4 4 4 4 5 5 5 6 6 6 6 5 5 4 3 4 3 3 3 3 3 3 2 2 2 2 2 2 2 3
2 2 2 2 2 2 2 2 2 2 2 2 3 4 4 4 4 4 4 5 5 5 6 6 6 6 6 5 4 4 4 3 3 3 3 2 2 2 2 2 2 2 3
3 2 2 2 2 2 2 1 1 2 3 2 2 2 3 3 4 5 5 5 5 5 5 5 6 7 7 6 5 5 5 4 3 3 3 2 3 2 2 2 2 3 3
2 2 2 1 2 2 2 1 1 1 2 2 2 3 3 3 4 5 5 5 5 5 4 4 4 6 7 8 8 8 7 6 6 4 3 4 4 4 3 3 2 2 3
2 2 2 2 2 2 1 1 1 2 2 2 3 3 3 4 4 5 6 4 4 5 5 4 4 4 5 5 5 6 7 9 9 6 6 6 5 4 4 4 4 3 4
2 2 2 2 1 1 1 1 2 2 2 2 3 3 3 4 4 5 5 4 4 4 5 5 5 4 5 5 4 4 4 5 7 6 6 6 6 5 5 4 4 3 3
2 2 2 2 2 1 2 2 2 2 2 3 3 3 4 4 4 4 3 3 3 4 4 4 5 5 6 6 4 4 4 4 5 7 8 7 7 7 5 3 3 3 3
1 1 1 2 2 2 2 2 2 2 2 2 3 3 4 4 4 4 4 2 2 3 3 3 6 6 6 7 6 5 5 5 4 3 4 4 5 6 7 6 5 4 3
1 0 0 1 1 2 1 1 1 1 1 1 2 2 2 3 3 4 4 3 3 3 3 3 3 6 7 8 7 6 7 5 3 3 3 3 3 3 4 5 5 5 4
1 1 0 0 0 0 0 1 1 1 1 1 1 2 1 1 2 3 3 4 3 3 3 3 3 6 7 7 6 6 6 4 2 2 2 3 3 3 3 3 5 5 5
1 1 0 1 0 0 0 0 1 0 1 1 1 2 2 1 1 2 3 3 3 3 3 4 4 5 5 5 6 6 4 3 3 3 3 3 3 3 2 2 3 3 4
1 1 0 0 1 1 0 0 0 1 1 1 1 2 2 2 2 1 1 2 2 2 2 2 3 3 3 3 3 3 3 3 4 4 3 3 2 2 2 2 2 2 2
1 1 0 0 0 0 1 1 2 2 3 3 3 2 2 3 4 3 2 2 2 2 1 1 1 1 1 2 2 2 2 3 3 3 3 3 3 3 2 2 2 2 3
1 0 0 0 1 1 1 2 2 3 3 4 5 4 3 4 4 4 3 3 3 2 1 1 2 2 3 3 3 3 3 3 4 3 4 4 4 3 3 2 3 3 4
1 1 1 1 1 1 1 1 2 3 3 2 3 4 4 4 3 3 2 2 2 3 1 2 2 3 3 3 3 3 3 3 3 4 4 4 4 4 4 3 3 4 4
0 1 1 1 1 1 1 1 1 2 3 3 3 3 4 4 3 2 1 2 0 1 2 3 3 3 3 3 3 3 3 3 3 4 4 4 4 4 4 4 4 4 4
1 1 1 1 1 1 1 1 1 2 2 3 3 3 3 2 2 1 2 1 2 2 3 3 4 4 4 4 3 3 3 3 3 3 3 4 3 4 4 4 4 4 4
1 2 1 1 1 1 1 1 2 2 2 2 3 3 2 1 1 1 2 2 3 3 3 4 4 4 4 4 3 3 3 3 3 3 3 3 3 4 4 4 4 4 4
1 1 2 1 1 1 1 2 2 2 2 3 3 4 3 2 3 3 3 3 3 4 4 4 4 4 4 3 3 4 4 4 4 3 3 3 3 3 3 3 4 4 4
1 1 1 1 1 1 2 2 2 2 3 3 3 3 3 2 2 3 3 3 4 4 4 4 4 4 4 4 4 4 4 4 4 4 4 3 3 3 3 3 3 3 3
1 1 1 1 1 1 1 2 2 2 2 3 3 3 2 2 2 3 4 4 3 3 3 3 4 4 3 3 3 4 4 4 4 4 4 4 4 4 4 4 4 4 4
1 1 1 1 1 1 1 1 2 2 3 3 3 3 3 3 3 4 4 4 4 4 3 3 4 5 5 4 3 4 4 4 4 4 6 5 4 4 4 4 4 4 4
1 1 1 1 1 1 1 2 2 2 3 3 3 3 3 3 3 4 4 3 4 4 4 4 3 4 5 6 4 4 4 4 4 4 4 5 5 5 4 4 4 4 4
1 1 1 1 1 1 2 2 3 3 3 3 3 3 3 3 4 4 4 3 4 4 4 3 4 4 5 4 5 4 3 3 3 3 4 4 5 5 5 4 5 4 4
Wind_Direction
186 189 185 195 190 183 190 204 204 200 197 201 203 200 203 203 196 194 203 194 197 205 198 191 199 189 190 193 188 186 191 186 220 259 250 266 267 272 283 268 257 252 246
179 176 184 184 173 178 198 208 203 203 205 206 204 207 211 210 202 200 208 205 202 205 203 198 207 194 194 196 194 202 204 200 206 240 264 265 259 262 269 267 268 257 250
163 157 155 168 173 188 203 204 195 202 209 206 203 209 213 211 208 210 210 211 211 209 204 203 207 192 202 201 201 206 207 205 203 216 252 259 259 263 273 275 274 270 262
159 159 167 184 189 196 202 207 202 199 203 209 210 210 211 210 210 211 210 217 218 215 211 209 207 200 202 199 202 205 199 197 195 210 236 250 250 254 243 258 275 270 273
158 163 188 192 190 179 181 207 213 209 216 217 218 221 224 220 217 207 207 213 215 218 218 215 213 211 210 204 201 198 192 195 199 210 227 240 244 237 235 235 258 282 273
157 176 178 170 174 175 190 199 207 234 233 223 230 224 228 238 235 218 205 206 210 212 220 225 223 219 218 215 217 208 198 198 205 211 223 229 242 238 229 226 236 258 270
166 175 169 164 176 199 209 200 226 234 235 236 234 229 236 246 235 224 210 203 209 213 215 218 228 224 214 213 219 218 220 223 215 210 219 231 234 227 214 227 229 234 247
166 177 174 166 177 196 210 237 243 239 238 242 239 234 238 250 239 225 212 202 212 219 216 213 216 223 214 206 208 218 233 236 228 221 224 233 234 228 217 223 228 241 253
176 193 196 190 189 202 233 255 260 248 252 250 251 238 235 251 240 228 204 196 211 226 223 214 211 218 221 206 200 218 243 258 249 229 228 235 235 226 210 201 210 220 255
202 217 214 199 198 216 231 246 250 241 252 260 264 251 238 241 237 220 197 188 208 229 233 228 222 220 220 205 204 209 230 247 241 238 236 244 241 232 214 210 210 213 228
205 213 216 199 212 219 226 239 251 252 270 271 278 283 261 250 235 211 202 197 205 220 233 239 237 226 225 217 215 217 227 235 239 236 244 247 242 230 220 215 213 213 220
96 72 353 284 266 267 252 296 278 217 250 273 289 309 302 285 253 227 218 224 215 213 237 243 242 231 225 221 220 228 230 225 221 227 241 247 244 241 232 222 219 222 231
96 88 1 18 31 40 196 281 325 283 248 275 271 283 293 294 274 253 230 232 228 227 245 247 244 236 230 225 230 232 219 206 205 222 238 242 239 236 235 229 224 225 237
122 103 49 62 18 8 28 193 249 257 254 266 270 276 290 293 283 276 268 253 245 251 260 256 246 237 232 237 241 233 218 212 211 223 238 243 236 230 228 220 224 220 235
115 96 69 214 217 291 302 260 239 239 220 224 242 242 257 277 269 246 232 248 244 242 249 272 268 247 233 236 241 236 220 209 215 223 227 234 233 234 237 217 216 216 226
129 116 192 281 297 312 325 325 301 258 265 243 234 232 247 252 271 269 250 248 242 199 166 248 251 239 232 232 234 237 224 218 221 222 225 229 232 234 238 223 214 221 231
187 211 227 249 278 299 300 300 316 328 328 289 258 248 242 257 270 268 256 253 223 163 189 243 254 252 245 238 233 231 231 226 219 219 224 229 230 231 230 230 225 227 234
229 237 241 249 260 271 277 281 286 301 315 317 303 274 264 258 264 258 191 112 75 208 246 249 254 261 259 251 245 240 237 228 217 219 223 228 226 224 228 232 229 230 234
259 263 253 256 259 273 281 284 294 299 299 299 313 317 296 280 281 246 172 201 234 249 256 260 258 257 258 254 252 246 237 231 226 220 221 223 220 219 227 233 231 225 227
269 282 277 253 259 278 290 295 299 297 295 294 294 294 311 328 300 271 227 237 248 256 257 258 261 259 257 255 254 249 243 241 235 229 228 226 219 217 224 228 227 226 227
260 274 293 290 270 265 270 275 279 281 286 292 288 283 266 256 258 257 245 237 245 254 259 261 260 258 257 253 250 246 241 241 238 235 231 229 223 222 228 227 228 230 229
262 269 271 275 281 280 277 274 273 276 280 282 291 290 263 256 263 265 260 256 252 253 255 257 258 255 253 250 245 240 238 237 235 231 230 226 222 224 222 221 224 228 229
304 309 308 306 300 299 293 293 285 285 289 291 297 303 299 277 273 272 271 270 269 265 260 255 258 263 265 259 254 247 241 240 236 226 220 222 223 220 216 218 219 222 227
305 307 304 304 307 310 298 294 291 291 290 289 294 295 292 286 277 272 272 272 271 271 265 257 253 258 265 265 257 253 252 252 242 229 218 214 215 218 215 214 215 216 220
276 281 278 278 273 277 286 290 289 287 285 283 286 294 297 294 292 288 284 276 271 273 274 266 260 261 263 265 268 269 267 255 240 230 215 211 212 212 214 218 214 208 207
255 256 264 272 275 275 276 282 284 287 287 290 289 290 294 293 294 295 295 291 284 282 284 273 264 263 268 268 272 274 270 260 243 227 217 211 213 214 210 212 209 207 203